Location: *
(38.4303°S, 157.0822°W)
Time: 14:50:13
(UTC+00:00)

ATLAS 5 CENTAUR R/B - Pass Details

Date: 21 May 2024
Orbit: 419 x 1168 km, 63.3° (Epoch: 14 June)

Event Time Altitude Azimuth Distance (km) Brightness Sun altitude
Exits shadow 16:13:14 - 202° (SSW) 3,249 4.9 -14.7°
Reaches altitude 10° 16:15:29 10° 192° (SSW) 2,532 4.4 -14.3°
Maximum altitude 16:19:55 22° 142° (SE) 1,639 4.0 -13.5°
Drops below altitude 10° 16:23:43 10° 91° (E) 2,119 5.6 -12.7°
Sets 16:26:16 0° 74° (ENE) 2,895 7.2 -12.3°
